RH
76 72 67 72 76 66 65 59 56 58 53 49 47 49 52 53 56 60 76 66 76 87 93 96 94 92 92 90 79 65 61 58 58 57 60 65 69 70 78 85 88 95 96
70 65 64 63 62 59 60 57 56 58 56 54 54 55 56 59 58 60 71 60 62 68 77 88 97 97 96 93 81 63 59 58 56 55 54 48 54 61 62 63 66 66 86
64 79 75 61 59 59 57 55 57 57 56 55 56 57 57 58 60 63 65 70 62 63 66 83 95 97 97 98 97 70 60 61 63 62 60 57 52 53 60 61 64 64 67
65 89 86 68 61 58 56 55 58 58 59 60 58 58 58 59 59 61 65 66 69 75 68 68 82 91 96 96 96 96 69 72 74 77 74 73 72 66 61 68 68 67 65
71 90 83 76 61 60 57 58 60 59 59 57 56 57 59 60 63 61 62 64 66 70 71 74 69 76 86 92 96 98 95 83 78 80 81 81 79 78 76 74 80 83 77
72 84 87 76 63 66 64 60 58 58 60 58 58 58 60 60 60 62 61 61 62 68 74 72 76 73 76 82 87 97 96 98 97 96 90 90 91 92 89 91 95 94 93
67 68 70 66 68 69 67 62 60 60 59 60 59 60 59 60 64 63 61 61 57 63 68 70 72 74 73 74 76 81 91 92 95 91 89 90 91 91 97 98 94 96 96
68 62 68 68 69 70 68 65 61 64 66 69 60 64 67 63 64 63 64 63 63 61 62 65 66 68 71 72 76 78 78 80 83 94 90 86 84 83 83 78 86 93 91
78 71 75 76 73 70 69 68 66 70 67 73 75 70 70 66 56 56 61 63 64 65 66 66 69 69 68 71 72 85 88 86 85 89 97 97 94 94 97 96 96 95 93
79 78 78 78 78 73 71 74 75 72 70 80 81 78 76 73 67 68 62 65 70 72 71 71 72 72 72 76 84 90 94 92 87 91 93 99 99 97 96 96 93 91 90
83 83 82 76 76 76 75 77 76 80 80 86 82 83 77 72 73 79 78 69 73 77 77 73 78 81 86 88 85 85 86 89 92 91 93 91 88 95 97 96 94 93 86
87 88 85 80 80 81 80 80 78 83 92 88 90 89 86 82 82 89 93 87 85 89 91 85 82 83 79 81 85 87 90 84 82 81 85 86 84 85 93 74 84 92 80
86 88 89 91 93 94 90 93 95 95 98 92 86 88 91 91 95 95 99 90 89 95 96 91 85 87 86 85 87 89 92 87 86 94 97 89 96 96 85 76 82 85 73
90 90 96 98 99 98 98 99 99 95 88 79 94 96 94 95 96 95 92 89 88 87 94 93 87 98 97 93 86 81 79 88 98 86 82 85 99 97 89 87 82 80 84
97 94 100 99 99 93 90 98 98 92 90 88 93 99 98 94 97 95 98 98 96 90 87 90 93 86 86 89 88 89 89 93 89 87 99 98 98 95 91 94 88 82 80
100 99 99 90 87 90 96 98 95 91 96 99 94 94 96 95 94 96 97 98 97 100 97 90 95 93 89 90 93 95 98 98 95 98 99 100 100 99 95 96 94 89 90
100 96 87 78 83 86 86 90 95 99 98 98 95 99 95 94 94 92 92 91 94 98 99 94 91 90 87 90 92 95 97 100 100 99 99 99 100 100 99 100 100 99 94
99 86 86 79 94 91 95 94 97 99 97 90 95 95 91 89 90 88 86 85 81 90 90 86 77 74 85 90 98 99 99 98 98 99 100 100 100 100 99 99 99 99 100
99 95 91 95 91 95 99 95 98 100 100 94 92 89 89 88 84 76 73 73 71 74 83 88 88 85 88 91 93 98 100 100 99 99 100 99 99 100 99 98 98 97 99
100 99 98 87 80 97 99 100 100 99 93 93 91 92 87 78 74 66 67 75 75 79 75 81 83 92 91 98 88 92 94 99 100 99 99 99 100 99 98 99 98 99 100
100 100 100 100 100 100 100 100 98 99 99 99 91 83 73 64 59 60 64 80 81 82 85 93 91 89 90 95 95 100 99 99 98 99 99 100 99 100 100 100 100 98 98
96 96 95 97 100 100 100 100 99 99 96 87 80 67 58 56 60 61 62 65 68 84 92 97 96 94 89 94 99 100 100 99 98 99 100 99 100 100 100 100 100 98 97
98 100 100 100 100 100 100 100 100 92 85 74 64 63 65 68 66 68 70 75 79 80 84 88 93 89 93 97 98 99 100 100 100 98 100 99 100 100 100 100 99 98 93
96 97 98 99 98 97 99 95 87 76 69 66 65 66 67 68 71 74 79 80 81 81 87 90 91 94 94 91 97 98 100 100 99 99 100 99 95 98 98 98 97 96 91
92 92 93 95 94 89 80 70 66 66 69 70 69 68 71 74 75 76 79 81 84 84 78 76 77 79 76 74 77 95 100 99 99 98 98 98 92 93 93 93 91 81 79
92 90 91 88 86 76 69 67 67 67 71 74 72 74 73 82 82 77 78 85 86 84 83 82 80 78 76 66 57 71 88 100 100 96 92 99 87 84 75 68 71 68 66
Wind_Speed
26 26 26 25 23 22 20 19 15 15 13 12 11 10 9 9 9 9 8 10 9 8 8 7 6 6 5 5 4 3 3 3 3 3 2 3 3 4 4 5 5 6 8
24 26 26 26 24 22 20 18 16 15 14 12 10 9 8 8 8 7 6 7 8 7 7 7 7 6 6 5 4 3 2 2 1 1 1 0 1 2 2 2 3 4 5
25 26 24 26 23 21 20 18 16 14 13 11 10 9 8 7 7 6 7 6 7 8 8 9 9 8 7 6 6 4 2 2 1 1 1 2 2 2 3 4 4 5 4
25 24 27 23 23 21 20 18 17 15 13 11 10 9 8 7 7 7 7 8 8 7 9 10 11 10 10 9 8 7 4 4 3 2 3 4 5 5 6 6 7 7 6
27 24 34 25 24 21 19 17 16 15 13 11 9 7 6 7 7 8 9 9 9 10 9 11 12 12 13 12 12 11 10 8 7 6 7 8 10 10 9 10 10 9 9
29 28 30 25 23 20 18 17 16 13 12 10 7 6 7 7 8 9 9 10 10 11 11 10 11 15 16 15 14 13 13 14 14 14 13 13 13 13 14 14 14 13 13
31 30 28 26 23 20 18 18 16 14 10 8 6 6 8 9 9 9 10 10 10 11 12 13 13 13 13 13 17 17 16 15 14 13 15 15 16 16 16 17 17 17 17
30 29 26 25 24 20 19 18 16 13 11 10 5 1 2 7 9 10 10 9 9 10 12 13 14 14 13 12 14 14 17 18 18 15 15 13 13 14 14 15 17 18 18
31 27 27 25 24 20 20 18 16 13 10 9 7 2 1 0 2 8 6 5 6 7 9 12 15 14 15 13 13 11 16 16 16 16 13 12 10 11 11 11 13 15 17
26 28 25 25 24 20 18 17 15 13 9 10 6 7 3 5 2 3 6 6 4 5 8 10 14 18 18 16 11 15 14 12 12 12 12 9 9 10 12 12 13 15 17
28 28 27 24 23 20 17 17 17 14 10 7 6 5 5 2 7 6 5 8 11 7 11 13 13 11 13 13 15 15 12 12 9 8 11 12 12 12 12 12 13 15 16
27 26 24 22 21 20 18 16 14 13 10 10 7 5 4 4 3 3 1 5 10 12 12 12 13 15 16 12 11 11 10 9 8 7 11 13 13 14 12 11 10 12 15
27 28 26 24 21 19 18 17 16 12 11 7 5 7 6 7 9 10 8 5 3 4 5 9 10 8 8 9 9 12 12 11 11 14 16 15 16 16 12 7 7 9 13
27 29 26 25 22 21 17 15 16 15 9 2 6 7 10 8 4 5 5 5 3 3 3 5 5 10 11 11 11 8 12 16 17 16 16 13 13 11 7 6 7 5 5
29 28 26 23 21 20 19 17 14 10 7 6 7 8 6 3 6 7 6 6 1 2 1 2 2 5 11 12 13 15 16 16 16 14 10 8 9 9 7 6 6 4 6
33 30 28 26 20 17 15 15 12 10 12 10 10 9 9 10 9 10 8 9 9 7 2 2 3 8 11 13 13 14 13 16 16 10 9 9 10 9 7 6 8 6 4
32 34 30 21 18 15 12 12 12 16 15 15 10 15 11 10 9 10 10 7 5 5 4 5 9 12 14 14 14 16 14 14 13 13 12 12 12 10 9 8 8 8 7
36 27 24 16 17 15 14 15 16 21 21 16 17 14 12 9 9 8 8 5 4 4 5 8 9 7 7 9 10 12 12 15 14 14 13 13 13 13 11 10 10 9 9
26 22 21 20 15 15 16 12 19 21 21 18 17 14 13 12 9 8 5 3 3 4 4 5 7 9 13 13 16 15 16 16 16 15 14 15 14 13 12 11 10 9 9
19 21 20 21 20 19 19 24 20 19 17 18 17 16 14 12 11 7 4 2 3 4 5 7 7 10 10 11 14 16 17 17 16 15 14 14 13 12 10 9 11 10 10
20 24 23 22 24 25 24 23 21 20 21 19 17 17 15 13 10 8 6 5 5 4 4 6 7 8 10 10 12 12 17 18 18 16 15 15 14 12 10 11 12 11 11
18 18 19 21 21 20 21 22 23 23 20 19 18 16 14 12 11 9 7 7 7 5 5 6 6 6 8 9 10 12 14 11 5 6 8 14 14 14 15 14 14 11 12
17 18 20 21 21 20 21 21 21 20 19 19 18 16 13 12 9 6 4 2 3 4 5 6 6 7 8 4 12 15 12 11 9 13 9 11 13 17 17 15 14 12 11
15 17 17 17 17 18 20 20 19 19 20 19 16 14 11 10 8 6 4 3 3 4 4 4 5 6 8 9 7 11 11 11 13 13 9 5 7 12 16 17 17 15 14
11 12 14 16 16 17 21 20 19 17 16 14 13 12 11 9 9 9 7 6 4 5 7 7 9 10 11 10 8 7 7 6 3 4 5 6 5 6 9 14 15 14 16
14 14 15 14 12 16 20 20 17 15 13 12 11 11 13 11 11 11 8 5 5 5 9 8 9 8 9 9 7 7 6 6 7 4 3 6 5 4 3 5 11 13 13
Wind_Direction
162 162 166 165 167 168 166 169 168 162 160 158 154 149 147 143 140 139 152 155 155 155 160 160 162 159 157 151 141 128 117 104 96 97 94 96 82 70 66 58 50 47 47
172 167 171 169 170 169 170 172 169 167 162 159 157 156 154 152 153 152 164 168 174 176 179 182 184 187 186 184 183 170 155 149 137 131 141 124 57 25 20 13 18 23 43
176 160 173 168 171 170 171 171 168 166 165 164 168 172 171 173 171 170 174 203 208 202 202 201 203 204 206 208 213 209 189 197 222 245 311 309 311 311 314 326 331 335 348
174 162 169 170 166 171 172 171 171 170 170 169 172 177 184 191 197 198 202 202 214 229 234 222 216 219 219 216 221 227 222 220 228 265 284 289 290 288 291 298 297 300 308
179 172 173 176 170 170 174 174 176 174 175 179 176 183 195 205 212 218 222 225 227 223 237 256 245 234 233 230 228 231 237 245 252 265 278 279 283 286 283 280 277 276 282
179 174 174 180 173 170 175 182 180 179 182 181 185 198 217 225 226 232 237 238 239 242 243 244 261 250 244 244 244 239 244 252 260 266 271 272 275 276 276 272 269 267 264
175 174 177 177 175 175 180 181 179 182 184 176 183 214 236 237 241 242 244 244 244 245 247 247 243 249 260 267 258 253 251 257 267 271 274 273 275 278 276 273 270 264 262
177 174 173 173 179 179 185 183 180 182 181 181 183 296 251 195 228 239 237 242 249 252 253 252 249 247 247 259 272 268 259 257 262 268 277 285 278 282 285 285 283 281 271
176 178 172 176 179 181 183 184 183 182 178 182 196 269 181 27 352 169 191 220 249 251 255 253 246 246 249 249 258 265 266 262 267 271 277 281 283 290 295 298 297 296 291
174 176 174 176 178 180 176 181 182 187 178 173 174 213 249 344 339 314 170 218 217 266 255 280 250 246 240 241 250 246 258 267 273 276 275 285 296 299 300 301 300 299 296
174 176 176 178 175 175 175 179 183 183 188 183 174 154 202 256 255 236 277 301 311 286 285 280 267 239 222 230 239 253 259 261 275 286 293 284 285 288 291 297 304 304 302
174 176 174 173 172 174 179 181 185 185 179 198 209 215 209 247 238 223 254 282 289 297 287 274 252 243 249 249 251 259 264 262 290 298 283 274 280 284 278 290 297 309 313
171 174 172 172 170 171 173 175 174 184 188 183 224 233 243 250 253 265 251 277 262 291 289 260 235 232 233 235 243 257 257 258 262 277 282 283 281 289 291 291 291 307 320
176 176 172 170 168 167 173 172 175 170 166 214 222 227 280 263 232 197 215 256 252 243 278 250 259 242 249 255 251 253 257 274 284 286 291 292 274 281 281 271 293 313 344
174 173 164 167 173 171 171 168 170 186 201 208 224 231 179 227 251 240 233 243 247 285 255 341 272 267 259 268 275 274 281 283 283 291 303 296 280 286 272 265 275 297 316
166 167 167 158 158 163 167 176 188 202 191 185 167 179 192 211 233 247 246 242 245 251 256 298 296 286 286 288 290 292 290 287 289 280 266 261 266 265 262 251 254 266 225
171 164 162 158 161 171 182 184 184 176 179 181 181 183 190 202 211 236 246 259 260 263 280 293 303 300 300 309 313 304 297 288 287 289 273 265 257 242 232 223 220 213 226
163 164 168 176 178 179 188 208 216 217 195 185 189 192 188 211 226 233 240 242 252 256 279 291 300 306 312 310 294 288 282 286 285 281 265 261 259 255 250 242 239 237 237
172 166 171 181 189 205 207 190 187 183 174 174 180 192 210 215 218 219 216 215 250 280 276 279 291 303 302 300 303 301 299 290 287 275 263 259 258 258 255 252 246 240 227
174 186 191 196 204 207 197 188 186 187 176 181 189 197 202 197 203 199 201 225 254 263 274 291 293 309 311 302 313 310 306 305 299 286 270 260 257 251 246 232 236 227 213
158 167 171 177 183 185 187 189 185 186 184 182 185 190 188 189 190 199 199 224 253 279 286 299 296 299 306 319 320 317 306 304 301 294 274 262 253 245 220 221 233 229 224
165 172 176 187 188 193 191 190 191 186 183 185 184 184 184 190 201 210 219 233 245 244 257 274 283 294 302 315 313 319 315 317 320 319 273 261 244 234 229 228 232 233 230
169 177 181 185 183 184 190 193 193 188 187 185 184 182 181 191 193 202 215 231 266 277 263 257 278 296 304 325 307 304 310 311 286 293 292 280 255 238 230 226 229 230 231
169 171 174 178 179 181 182 190 191 183 180 180 182 185 187 196 197 197 210 241 272 291 292 293 287 279 275 279 277 285 296 303 300 288 274 273 280 248 242 238 238 233 230
161 166 172 174 178 181 180 181 180 176 180 180 183 189 193 200 211 198 196 216 229 260 279 280 288 297 302 309 320 298 314 314 306 290 273 244 267 250 247 241 241 241 235
179 175 174 173 181 182 181 180 181 182 182 186 191 201 205 195 210 211 206 211 233 248 260 275 289 301 305 300 317 314 306 293 287 303 315 226 271 229 293 266 238 234 238